Temp
94 86 81 86 89 88 82 72 64 64 62 64 71 65 65 69 71 69 68 70 69 69 73 74 73 71 71 71 72 69 67 66 66 66 65 65 65 66 67 67 67 66 65 66
88 82 90 92 91 83 79 74 67 66 68 67 68 62 66 67 69 71 69 69 68 68 71 71 72 71 72 72 71 69 67 66 65 66 64 65 65 66 64 66 65 65 66 65
83 84 91 89 82 73 62 71 68 65 71 74 71 56 56 59 69 71 65 65 68 68 69 70 71 73 73 71 71 68 66 66 65 65 65 65 65 65 64 64 63 63 65 65
83 91 86 85 75 76 65 82 80 75 70 57 69 53 49 56 60 56 56 56 61 67 70 72 73 71 72 72 73 68 67 66 66 65 63 62 61 60 62 61 63 62 65 64
76 79 77 75 80 85 78 84 80 80 64 64 57 54 54 58 55 55 57 60 62 72 72 73 71 73 73 74 72 66 67 66 66 66 65 60 61 63 64 63 61 63 62 64
79 82 80 74 73 85 86 80 79 80 74 57 61 57 44 47 52 58 61 65 69 71 71 71 72 73 72 73 73 64 67 66 67 66 64 62 61 61 58 62 62 63 59 63
74 72 72 70 59 79 82 74 64 60 60 47 59 51 46 57 65 66 65 66 67 69 69 69 68 71 69 70 71 70 68 65 65 64 65 63 62 61 60 60 59 61 59 62
71 60 70 71 72 76 77 73 62 50 54 60 60 44 48 60 65 65 70 70 71 68 70 68 72 72 71 70 69 68 67 65 66 62 63 65 65 62 63 62 59 60 61 61
71 71 86 85 85 84 75 69 77 64 67 56 42 50 54 57 62 63 58 65 64 63 67 70 71 69 68 69 67 68 66 66 65 66 64 65 65 63 62 62 62 62 62 63
78 67 81 85 86 83 78 81 64 66 48 44 43 49 48 59 66 69 67 67 67 69 70 70 71 69 69 67 67 67 67 65 64 65 64 66 62 65 64 63 63 62 62 63
79 71 72 78 73 70 72 66 69 66 50 49 45 44 60 64 68 68 71 68 69 70 70 68 69 66 69 67 68 68 67 66 66 65 63 64 64 62 62 62 64 64 63 63
78 71 65 66 76 78 72 66 66 57 51 49 50 46 65 69 71 71 71 72 72 72 73 73 69 69 68 68 68 67 65 66 66 63 65 63 63 63 63 63 64 64 63 63
74 68 61 63 68 71 65 67 67 65 60 52 48 41 69 69 68 70 68 71 71 70 71 71 70 69 68 66 67 66 65 66 66 65 65 65 62 64 64 65 64 64 64 64
72 70 62 54 56 64 59 62 66 62 55 53 56 57 63 65 66 68 69 71 72 71 69 70 69 68 67 66 67 65 66 68 65 64 64 65 62 66 64 65 62 65 65 64
73 63 65 65 66 65 61 62 63 61 62 56 61 58 62 65 66 68 71 71 71 70 70 70 70 70 67 65 66 66 67 65 64 64 64 65 67 64 69 64 67 66 63 63
75 60 64 59 65 66 62 65 65 65 63 63 63 59 68 70 71 69 69 69 69 70 70 70 70 69 67 65 66 65 66 65 64 62 66 66 64 66 63 63 61 65 66 64
68 62 58 50 59 61 53 62 65 64 65 63 55 62 69 66 67 67 66 68 67 69 69 69 69 66 67 64 66 65 64 65 63 64 66 65 66 64 68 63 63 64 62 63
66 64 58 54 56 44 61 71 70 65 64 65 64 64 66 66 67 69 69 67 67 68 68 68 69 65 65 67 66 65 64 65 63 64 66 67 66 65 65 68 66 66 65 63
71 66 58 53 52 58 60 65 65 62 55 62 62 64 66 67 69 65 71 71 70 69 69 68 69 67 64 66 66 62 62 63 63 65 66 66 63 64 65 62 64 65 64 64
74 72 63 58 49 44 58 68 74 71 50 55 62 62 60 61 51 60 68 66 66 71 70 68 68 67 65 66 65 62 61 61 63 65 67 65 65 65 65 65 63 66 65 64
61 66 61 58 56 56 63 67 72 48 45 60 61 62 62 55 56 60 70 70 68 66 66 70 69 68 67 65 65 62 62 62 64 64 65 65 68 64 65 65 68 65 64 65
60 57 58 60 48 43 64 65 53 55 64 62 59 65 64 65 65 65 62 60 62 62 63 63 67 66 65 66 65 63 60 62 65 63 63 64 64 64 69 63 64 64 62 62
57 61 57 56 49 59 63 58 64 67 64 65 64 64 65 60 60 61 63 61 63 62 57 61 57 64 67 64 66 64 64 63 65 64 61 63 63 68 65 62 64 64 61 62
64 68 57 58 56 58 61 65 66 68 66 67 67 67 66 62 60 59 62 62 62 64 64 64 62 57 56 64 68 67 68 65 64 64 63 63 62 63 65 67 67 60 64 59
62 64 58 56 59 61 62 66 67 67 68 67 69 67 65 63 60 62 62 61 62 63 64 63 61 59 58 63 61 67 68 65 62 63 62 62 65 62 64 65 66 62 65 59
64 58 57 53 62 62 62 67 69 67 66 67 67 66 67 66 64 65 64 65 62 60 63 62 62 61 63 65 64 64 64 65 62 62 61 60 65 62 60 60 66 55 54 50
MSLP
1003.48 1003.20 1002.75 1003.07 1003.70 1004.54 1006.38 1009.14 1011.61 1013.64 1014.30 1013.42 1013.03 1013.75 1015.07 1014.90 1015.72 1016.14 1017.10 1017.65 1018.38 1018.89 1019.16 1019.71 1020.46 1021.14 1021.52 1022.11 1022.53 1022.96 1023.25 1023.42 1023.42 1023.05 1022.81 1022.63 1022.19 1021.95 1021.82 1021.69 1021.72 1021.77 1021.53 1021.22
1003.27 1002.63 1002.45 1003.11 1003.84 1005.17 1006.56 1008.28 1009.40 1010.50 1010.34 1011.50 1012.28 1013.04 1014.61 1014.96 1015.63 1016.64 1017.36 1018.04 1018.65 1019.01 1019.23 1019.95 1020.48 1021.15 1021.42 1021.88 1022.51 1022.96 1023.29 1023.54 1023.55 1023.43 1023.12 1022.87 1022.56 1021.92 1021.92 1021.84 1021.94 1021.61 1021.41 1021.18
1003.29 1003.51 1003.18 1003.64 1004.60 1005.71 1007.02 1008.46 1008.68 1009.03 1008.89 1009.88 1011.48 1014.05 1015.49 1015.66 1016.52 1017.51 1018.87 1018.73 1018.86 1019.31 1019.51 1019.93 1020.43 1020.73 1021.22 1021.77 1022.34 1022.90 1023.31 1023.40 1023.44 1023.36 1023.18 1022.77 1022.50 1022.15 1022.10 1022.07 1022.00 1021.75 1021.33 1021.10
1004.49 1004.00 1004.44 1004.47 1005.55 1006.45 1006.31 1006.45 1006.69 1007.36 1008.35 1010.54 1012.07 1014.24 1016.47 1017.34 1017.67 1018.99 1020.39 1019.18 1019.68 1019.45 1019.64 1019.85 1020.06 1020.76 1021.30 1021.63 1021.94 1022.61 1023.20 1023.29 1023.21 1023.21 1023.15 1023.02 1022.65 1022.48 1022.39 1022.10 1021.92 1021.57 1021.26 1021.13
1006.62 1006.25 1006.39 1007.17 1005.63 1005.65 1005.62 1005.92 1005.83 1005.57 1007.66 1009.36 1012.35 1014.56 1017.35 1017.55 1018.08 1019.38 1020.17 1020.16 1019.49 1018.90 1019.02 1019.25 1020.04 1020.75 1021.14 1021.33 1021.63 1022.24 1022.95 1023.22 1023.22 1023.23 1023.18 1023.14 1022.84 1022.62 1022.22 1022.06 1021.79 1021.33 1021.26 1021.07
1006.77 1007.55 1008.45 1008.77 1007.84 1006.34 1005.54 1005.50 1005.19 1004.84 1006.08 1009.71 1012.18 1015.17 1019.18 1019.64 1018.56 1018.98 1020.26 1019.62 1019.07 1018.85 1019.15 1019.57 1020.22 1020.55 1021.00 1021.23 1021.59 1022.66 1022.84 1023.11 1023.05 1023.16 1023.17 1023.08 1023.05 1022.74 1022.52 1022.00 1021.62 1021.29 1021.18 1020.85
1007.41 1008.63 1010.01 1010.27 1010.89 1006.95 1005.56 1005.27 1004.55 1005.05 1006.98 1011.50 1013.21 1015.86 1019.08 1018.92 1017.77 1018.14 1018.53 1018.86 1019.11 1019.21 1019.64 1019.92 1020.35 1020.68 1021.14 1021.43 1021.83 1022.19 1022.74 1023.14 1023.29 1023.19 1022.91 1022.94 1022.89 1022.69 1022.27 1022.15 1022.04 1021.48 1021.24 1020.88
1006.43 1008.29 1009.45 1009.26 1009.00 1006.69 1006.18 1006.13 1006.52 1007.16 1008.55 1010.24 1013.96 1017.81 1019.69 1019.52 1018.71 1018.69 1018.76 1018.78 1018.84 1019.56 1019.90 1020.07 1020.44 1020.73 1021.25 1021.58 1021.91 1022.50 1022.87 1023.17 1023.13 1023.13 1022.78 1022.75 1022.65 1022.61 1022.25 1022.14 1021.98 1021.64 1021.26 1020.92
1006.61 1006.65 1006.43 1006.69 1006.85 1006.51 1006.40 1006.79 1007.50 1008.64 1009.63 1011.90 1017.22 1019.57 1020.42 1019.63 1018.72 1018.63 1019.34 1018.82 1019.00 1019.72 1020.08 1020.31 1020.82 1021.17 1021.52 1021.80 1022.25 1022.64 1022.99 1023.10 1023.18 1022.97 1022.82 1022.61 1022.48 1022.51 1022.36 1022.03 1021.70 1021.31 1021.16 1020.89
1007.29 1007.40 1007.03 1006.55 1006.60 1007.25 1007.41 1007.87 1008.50 1009.44 1011.91 1014.49 1018.06 1018.70 1019.96 1018.07 1017.57 1017.55 1018.17 1018.51 1019.25 1019.57 1019.96 1020.26 1020.55 1021.08 1021.59 1021.82 1022.37 1022.87 1023.05 1023.16 1023.22 1022.88 1022.79 1022.45 1022.45 1022.27 1022.11 1021.81 1021.56 1021.25 1021.20 1020.97
1008.49 1009.10 1008.60 1007.84 1008.72 1009.23 1009.16 1009.86 1010.36 1011.50 1014.76 1015.90 1017.44 1019.54 1018.63 1017.94 1017.70 1017.69 1017.66 1018.38 1018.64 1019.10 1019.84 1020.41 1020.72 1021.51 1021.70 1022.08 1022.43 1022.58 1023.00 1023.02 1022.87 1022.66 1022.65 1022.41 1022.33 1022.23 1022.07 1021.80 1021.42 1021.21 1021.18 1020.86
1009.96 1010.08 1009.71 1010.49 1011.14 1011.45 1012.17 1012.76 1012.91 1013.31 1015.64 1017.67 1018.02 1019.62 1019.27 1018.17 1017.91 1017.94 1018.08 1018.32 1018.76 1019.35 1019.51 1020.02 1020.94 1021.35 1021.87 1022.08 1022.45 1022.73 1023.07 1023.05 1022.83 1022.79 1022.53 1022.43 1022.27 1022.06 1021.99 1021.68 1021.44 1021.09 1021.14 1021.05
1011.32 1011.01 1010.75 1011.23 1012.47 1013.20 1013.98 1014.49 1014.75 1014.84 1015.82 1016.87 1017.73 1019.99 1018.81 1018.56 1018.41 1018.32 1018.51 1018.76 1018.80 1019.45 1019.69 1020.12 1020.62 1020.98 1021.61 1022.07 1022.47 1022.86 1023.03 1022.86 1022.70 1022.70 1022.33 1022.26 1022.33 1021.98 1021.80 1021.52 1021.40 1021.27 1021.24 1021.11
1012.34 1012.07 1012.85 1014.18 1015.23 1015.42 1015.64 1015.93 1015.80 1015.72 1016.21 1017.31 1017.51 1018.11 1018.37 1018.46 1018.41 1018.44 1018.72 1018.81 1018.73 1019.10 1019.82 1020.00 1020.46 1020.91 1021.49 1022.16 1022.42 1022.81 1022.83 1022.60 1022.70 1022.69 1022.48 1022.21 1022.14 1021.86 1021.62 1021.49 1021.40 1021.24 1021.20 1021.11
1013.02 1013.36 1014.49 1015.73 1016.28 1016.65 1016.92 1016.74 1016.66 1016.42 1016.80 1016.91 1017.23 1018.05 1018.67 1018.81 1018.82 1018.83 1018.90 1018.88 1018.80 1019.02 1019.37 1019.85 1020.26 1020.74 1021.36 1022.09 1022.53 1022.76 1022.72 1022.55 1022.56 1022.53 1022.21 1022.07 1021.82 1021.69 1021.45 1021.39 1021.30 1021.25 1021.04 1020.96
1013.74 1015.15 1015.96 1016.92 1017.28 1017.10 1016.96 1016.82 1017.00 1017.02 1017.73 1017.75 1017.81 1018.56 1018.97 1019.02 1019.12 1019.23 1019.44 1019.39 1019.27 1019.23 1019.56 1020.03 1020.41 1020.87 1021.30 1021.92 1022.41 1022.74 1022.74 1022.55 1022.49 1022.32 1021.93 1021.69 1021.67 1021.51 1021.47 1021.43 1021.35 1021.11 1021.00 1020.85
1014.30 1015.53 1016.88 1017.86 1018.18 1017.68 1017.81 1017.73 1017.29 1017.96 1018.71 1018.99 1019.14 1019.55 1019.26 1019.31 1019.26 1019.43 1019.78 1019.83 1019.92 1019.77 1020.05 1020.34 1020.67 1021.05 1021.42 1022.15 1022.53 1022.69 1022.74 1022.48 1022.41 1022.11 1021.62 1021.48 1021.41 1021.30 1021.09 1021.13 1020.99 1020.93 1021.12 1021.03
1015.11 1015.97 1017.26 1018.03 1018.35 1018.45 1018.56 1018.36 1018.13 1018.66 1019.76 1020.13 1020.18 1020.41 1020.42 1020.25 1020.00 1020.12 1020.32 1020.21 1020.34 1020.33 1020.50 1020.81 1021.00 1021.40 1021.76 1022.09 1022.42 1022.63 1022.64 1022.29 1022.24 1021.88 1021.58 1021.49 1021.33 1021.26 1021.15 1020.68 1020.72 1020.71 1020.80 1020.89
1015.49 1015.99 1017.01 1017.90 1018.33 1019.03 1019.15 1019.08 1019.12 1019.21 1021.38 1022.10 1021.57 1021.46 1021.33 1021.06 1020.49 1021.17 1020.44 1020.27 1020.32 1020.45 1020.64 1021.11 1021.34 1021.49 1021.67 1021.93 1022.17 1022.39 1022.43 1022.24 1021.95 1021.61 1021.42 1021.27 1021.21 1021.12 1020.88 1021.03 1020.90 1020.61 1020.47 1020.50
1015.08 1015.75 1016.72 1017.58 1018.87 1019.50 1020.14 1019.86 1019.57 1019.67 1021.78 1023.28 1022.57 1022.60 1022.52 1022.42 1022.15 1021.43 1021.04 1020.86 1020.81 1020.70 1020.53 1020.85 1021.10 1021.32 1021.44 1021.65 1021.84 1022.02 1022.04 1021.92 1021.60 1021.15 1021.01 1021.14 1020.93 1020.77 1020.57 1020.62 1020.54 1020.48 1020.39 1020.10
1015.80 1015.87 1016.56 1017.60 1018.86 1020.77 1021.81 1021.26 1020.40 1021.72 1024.17 1023.49 1023.26 1022.97 1022.81 1023.10 1023.12 1022.79 1020.94 1020.78 1021.01 1020.76 1020.89 1020.63 1020.48 1020.49 1020.78 1020.98 1021.30 1021.44 1021.44 1021.36 1021.10 1021.12 1020.76 1020.74 1020.60 1020.59 1020.28 1020.23 1020.04 1020.09 1020.18 1019.90
1017.90 1018.26 1018.46 1019.04 1021.44 1023.14 1023.29 1022.36 1023.33 1024.80 1024.12 1023.81 1023.60 1023.01 1022.87 1022.71 1022.60 1022.34 1022.26 1022.12 1021.94 1021.65 1021.24 1020.56 1020.12 1020.08 1020.06 1020.29 1020.54 1020.70 1020.85 1020.85 1020.72 1020.68 1020.60 1020.31 1020.32 1020.37 1019.89 1020.05 1019.78 1019.77 1019.87 1019.84
1019.66 1020.44 1021.23 1022.50 1024.27 1024.78 1024.74 1024.86 1024.72 1024.59 1024.21 1023.92 1023.78 1023.56 1023.24 1023.49 1023.48 1023.15 1022.64 1022.30 1021.84 1021.43 1021.22 1020.61 1020.57 1020.33 1019.55 1019.72 1019.59 1019.68 1019.90 1020.19 1020.16 1020.13 1020.27 1020.09 1019.93 1019.74 1019.78 1019.80 1019.54 1019.47 1019.40 1019.20
1021.46 1021.69 1022.67 1023.27 1025.29 1025.35 1025.20 1025.10 1025.02 1024.79 1024.58 1024.38 1024.17 1023.58 1023.50 1023.61 1023.71 1023.54 1023.03 1022.76 1022.31 1021.71 1021.12 1020.88 1020.66 1020.54 1020.74 1019.47 1019.21 1018.94 1019.08 1019.52 1019.66 1019.62 1019.71 1019.85 1019.77 1019.58 1019.45 1019.43 1018.97 1019.19 1018.93 1018.71
1023.27 1023.05 1023.79 1024.72 1025.28 1025.27 1025.17 1025.09 1025.22 1024.98 1024.93 1024.66 1024.26 1024.13 1024.02 1023.99 1023.86 1023.57 1023.25 1022.88 1022.49 1022.02 1021.54 1021.28 1020.81 1020.49 1020.08 1019.44 1019.12 1018.68 1018.59 1018.95 1019.12 1019.21 1019.29 1019.44 1019.08 1019.16 1019.06 1018.99 1018.60 1018.63 1018.36 1018.41
1024.05 1024.57 1024.41 1025.10 1025.34 1025.30 1025.22 1025.06 1024.94 1024.89 1024.84 1024.64 1024.30 1024.18 1024.09 1023.93 1023.71 1023.46 1023.15 1022.77 1022.47 1022.28 1021.67 1021.11 1020.64 1020.12 1019.43 1018.92 1018.60 1018.51 1018.60 1018.65 1018.63 1018.71 1018.77 1018.94 1018.70 1018.64 1018.68 1018.43 1018.05 1017.85 1017.85 1017.68
Wind_Speed
16 12 13 17 15 14 13 15 20 15 17 8 2 18 13 13 12 14 13 14 11 10 10 14 10 10 9 7 4 8 8 8 6 7 6 7 7 6 6 2 6 8 7 6
16 17 14 14 14 23 20 11 7 7 4 6 15 16 15 12 11 12 15 14 10 12 10 10 9 9 6 4 6 8 8 6 5 6 4 4 6 5 3 5 6 6 6 7
21 10 12 11 9 16 11 11 5 7 7 10 6 8 6 3 5 8 6 8 7 11 10 11 10 8 4 7 4 8 5 4 5 4 5 4 5 6 6 6 4 5 6 8
22 14 13 16 17 4 9 9 9 11 14 4 10 6 3 9 11 17 14 12 5 9 12 9 9 6 7 3 2 9 5 4 3 3 5 6 5 5 3 4 4 5 6 7
11 16 23 29 6 11 13 15 16 21 8 6 4 2 11 11 11 13 13 14 13 9 6 10 12 6 2 3 3 8 7 4 4 4 4 5 5 5 4 4 6 3 5 4
3 4 8 16 26 22 9 15 23 13 5 4 5 5 12 5 13 8 11 14 13 11 12 10 8 5 2 6 8 10 7 4 6 6 5 5 6 7 5 6 4 5 4 3
4 7 11 13 10 27 17 19 13 13 10 2 19 14 6 11 8 12 13 10 8 8 9 10 5 5 7 6 8 8 8 8 6 6 5 5 5 7 7 5 7 6 4 5
8 6 11 20 13 16 21 14 10 12 13 18 15 8 5 10 15 11 9 11 8 9 10 8 5 9 10 7 7 12 8 7 6 6 5 4 3 3 5 6 4 5 4 4
14 13 12 6 6 14 11 12 15 16 20 9 1 3 6 11 11 9 8 5 11 8 7 7 9 9 4 6 9 8 6 6 6 5 3 5 4 6 4 5 5 2 4 6
12 12 17 20 11 12 15 12 11 10 9 5 9 12 6 3 10 10 10 6 6 6 7 7 5 4 5 7 8 6 5 5 7 5 3 5 6 4 5 4 6 5 4 5
13 9 12 14 14 19 13 18 13 7 7 4 6 5 4 11 12 11 9 9 8 10 5 6 6 9 7 10 6 4 6 6 6 5 3 4 5 5 5 6 4 4 4 5
13 5 9 19 16 17 20 17 14 7 9 5 2 3 8 12 12 10 10 13 12 10 8 10 9 8 5 8 5 9 6 6 7 6 5 5 6 4 4 4 5 5 4 5
11 7 8 3 12 14 12 14 15 11 6 10 6 2 8 9 11 11 12 10 5 3 6 8 5 2 3 8 5 5 4 6 4 5 6 6 7 3 3 4 4 4 5 4
5 6 14 11 8 10 10 13 12 7 7 5 9 7 12 13 11 11 10 7 8 11 7 3 4 7 6 6 3 3 5 4 4 4 8 5 5 2 4 3 3 3 2 2
8 10 17 13 10 11 7 10 11 13 10 6 9 15 13 12 12 11 10 10 9 4 6 9 8 5 7 6 3 2 4 3 5 2 3 3 3 6 2 2 2 3 2 4
4 5 13 13 10 8 11 8 7 11 14 13 13 14 12 12 11 10 9 12 14 12 10 8 8 7 6 5 3 3 5 6 3 3 7 1 5 2 4 8 1 1 4 5
3 3 5 2 6 4 7 13 11 13 11 12 10 9 11 12 11 9 13 14 14 12 11 10 9 5 5 6 2 3 4 4 5 6 5 5 4 3 1 2 5 4 4 4
5 7 3 3 3 3 6 10 9 11 12 14 14 16 17 17 7 9 8 9 10 10 9 10 8 5 4 4 2 2 6 6 4 7 5 2 5 5 7 3 2 1 2 1
5 2 4 2 4 10 12 11 10 8 9 13 13 13 15 16 5 3 10 14 7 8 6 4 8 7 5 2 2 3 6 8 4 9 6 2 1 4 3 4 6 5 3 1
6 7 1 5 3 3 7 17 15 6 1 8 8 11 13 14 13 14 12 8 10 11 3 2 4 5 0 4 3 4 5 7 7 8 4 5 4 5 6 1 4 2 6 6
6 4 8 2 4 8 17 19 14 5 7 9 8 10 13 7 6 17 16 12 9 6 9 10 6 6 6 6 7 7 6 7 5 9 4 6 5 5 6 4 3 3 5 4
9 7 6 8 4 5 17 13 8 6 12 11 8 13 13 13 14 15 16 16 22 12 13 9 9 7 8 7 8 8 7 7 5 6 7 5 4 5 5 3 6 3 4 6
7 10 6 8 5 5 11 9 6 12 13 17 16 14 15 15 14 14 14 12 13 10 1 10 13 13 8 10 9 8 8 6 9 5 6 8 5 6 4 5 6 4 4 7
11 12 5 4 8 7 8 8 12 13 14 14 15 14 15 14 14 15 15 15 15 16 16 13 9 6 18 6 9 8 7 7 7 8 7 8 5 6 5 8 4 4 5 4
7 6 6 7 6 5 11 12 13 14 15 15 15 17 16 12 9 11 12 10 12 14 14 15 14 12 10 14 5 10 8 7 7 7 7 7 7 8 5 7 6 5 5 2
10 8 6 5 8 8 8 8 10 11 11 12 12 12 11 12 13 14 12 12 11 13 14 14 16 17 14 13 7 3 3 9 8 7 5 6 7 4 4 6 8 8 9 12
Wind_Direction
251 259 271 315 301 322 51 57 122 161 213 321 118 150 168 161 183 156 160 157 154 143 143 93 95 116 98 86 45 56 47 34 2 357 355 354 338 346 352 18 16 354 322 324
254 257 277 338 334 17 18 0 348 264 328 212 216 146 167 157 176 171 168 149 139 126 134 121 113 103 103 92 63 62 65 42 14 358 346 330 327 319 264 30 340 311 344 326
296 41 355 290 27 65 48 300 274 259 287 254 355 118 62 5 163 108 67 75 117 140 141 141 130 117 118 67 54 78 104 57 54 341 328 340 343 335 7 355 319 341 338 341
281 22 334 311 90 219 234 224 314 266 252 10 336 308 300 190 174 90 80 81 219 158 152 145 133 105 70 40 70 114 112 71 48 332 324 343 316 1 322 292 297 296 358 351
6 7 345 319 327 335 333 342 314 300 73 253 121 60 25 203 141 131 139 169 226 179 136 93 85 94 141 95 69 108 108 68 24 323 348 334 2 317 326 337 321 351 353 331
114 36 295 344 333 312 318 310 297 290 231 308 72 22 33 28 248 140 186 188 209 115 100 106 103 128 192 59 40 117 100 55 25 354 341 339 341 325 331 329 301 336 322 345
66 50 359 50 273 290 347 328 325 341 351 49 107 82 212 298 94 127 172 140 96 111 126 97 174 200 94 48 54 81 53 32 3 346 359 360 348 322 312 13 342 332 330 347
344 215 191 211 233 344 320 343 359 330 306 311 46 23 47 323 65 38 84 115 93 39 115 153 78 49 37 21 60 61 35 15 3 343 346 17 332 346 345 344 339 313 343 337
314 346 348 51 264 340 360 344 357 342 297 35 8 132 259 217 127 142 146 187 99 140 185 72 77 71 13 23 59 48 33 5 350 332 20 346 21 346 344 318 294 308 353 339
334 338 335 340 13 27 357 22 342 358 11 3 131 65 12 70 41 99 117 106 142 135 115 124 73 90 49 84 95 85 36 26 325 322 310 6 330 6 327 332 337 352 15 345
35 3 322 42 28 25 17 15 2 76 105 295 332 58 280 20 46 22 39 139 149 114 129 97 60 73 50 90 97 54 27 357 315 335 341 3 340 345 331 320 347 15 10 0
36 309 325 68 43 53 50 30 17 33 63 128 187 48 279 31 30 32 13 27 52 13 24 68 69 59 41 93 55 55 19 326 306 30 319 33 354 15 357 342 353 19 30 358
333 26 304 72 53 44 43 31 12 73 97 26 55 309 31 33 20 27 18 25 36 49 48 51 3 14 85 89 55 38 343 302 18 341 323 20 336 33 348 30 53 31 41 356
292 18 80 68 62 24 24 13 40 48 39 39 33 131 36 19 19 20 20 1 351 58 32 329 285 119 102 100 52 50 319 306 8 343 325 357 334 284 38 26 46 59 122 358
358 72 82 78 45 55 45 43 30 38 20 14 39 54 25 16 4 12 2 2 342 40 20 18 6 22 108 125 61 11 316 337 285 348 283 321 352 344 6 159 31 340 301 189
30 89 84 51 85 80 50 56 56 48 28 15 25 27 15 14 3 12 15 358 351 353 15 6 9 351 44 85 53 336 308 299 202 316 303 246 258 94 331 360 3 303 350 356
74 123 95 146 270 311 35 3 8 61 43 19 31 358 12 8 343 21 20 10 353 355 358 11 0 17 55 78 17 323 298 304 331 288 296 262 284 326 191 235 280 36 356 337
91 111 91 136 240 65 58 14 332 77 39 20 24 15 11 1 43 50 15 14 359 348 356 359 346 79 101 57 12 317 298 288 271 281 299 300 19 353 343 281 248 6 325 344
108 139 121 160 171 126 46 27 349 298 66 15 353 12 2 342 329 354 11 9 9 356 10 355 332 341 116 155 255 306 294 299 259 285 286 138 337 280 293 17 334 330 312 283
168 205 157 211 22 133 17 12 339 26 92 324 312 11 5 8 352 334 360 360 1 331 343 251 276 305 253 199 219 249 274 286 276 270 260 177 242 311 285 201 282 316 294 277
297 15 316 150 117 85 352 9 318 12 327 356 355 356 352 339 283 317 350 333 317 334 5 291 238 252 244 198 207 237 272 264 269 286 284 256 249 282 282 287 260 268 277 282
20 326 12 29 34 31 2 30 46 313 337 6 342 339 334 331 336 348 1 358 336 359 330 265 232 241 220 215 206 232 244 275 265 268 277 233 227 269 300 301 275 243 253 268
44 45 45 38 85 50 36 56 10 358 354 358 357 349 351 24 13 355 339 337 325 333 358 306 357 305 231 200 208 224 233 250 272 252 272 273 263 255 284 283 286 304 265 253
56 46 73 106 63 67 55 37 19 3 8 355 353 343 7 12 11 3 354 350 347 345 344 338 313 325 314 245 226 217 229 224 266 245 254 269 276 265 281 283 270 271 284 249
47 26 82 68 53 207 32 33 17 8 9 7 359 9 3 9 355 351 344 335 346 334 344 336 336 326 263 268 259 240 219 210 234 261 254 242 256 257 255 275 257 231 275 350
44 22 27 55 28 3 14 12 11 7 3 6 353 5 360 355 353 353 346 352 5 353 338 338 335 331 321 306 290 3 231 228 230 246 251 243 261 264 255 268 267 244 252 280